Voltar ao catálogo

STARLINK-31252

AtivoComunicaçõesVLEO
NORAD 59083·PAYLOAD·🇺🇸 United States

Lançado Feb 29, 2024 de Cape Canaveral Space Force Station

Loading…

Próximas Passagens (próximas 24 horas)

TLE

AtualizadoSource: CelesTrak SupGP

Época: Sep 15, 2026, 02:50 UTC

1 59083C 24041K   26258.11854167 -.00030435  00000+0 -11025-2 0  2587
2 59083  42.9993 237.7237 0001278 267.0921 162.6532 15.27587966    11

Acompanhe STARLINK-31252 em tempo real com AllMySat

Download on the App Store